Terminal Aerodrome Forecast
Issued by NWS

Home | Current Version | Previous Version | Text Only | Print | Product List | Glossary On
Versions: 1 2 3 4 5 6 7 8 9 10 11 12
000
FTUS41 KBTV 231120
TAFSLK
TAF
KSLK 231120Z 2312/2412 28009G16KT P6SM SKC
     FM232000 25012G23KT P6SM SCT120
     FM240100 23007KT P6SM BKN100=

USA.gov is the U.S. government's official web portal to all federal, state and local government web resources and services.